Location: Casa Rossa
(45.2389°N, 12.2056°E)
Time: 04:09:42
(UTC+00:00)

Cosmos 1536 - Pass Details

Date: 14 July 2020
Orbit: 539 x 560 km, 82.5° (Epoch: 11 August)

Event Time Altitude Azimuth Distance (km) Brightness Sun altitude
Exits shadow 02:02:54 22° 219° (SW) 1,258 4.0 -13.2°
Maximum altitude 02:05:13 45° 282° (WNW) 765 3.3 -13.0°
Drops below altitude 10° 02:09:09 10° 357° (N) 1,848 6.2 -12.5°
Sets 02:11:24 0° 3° (N) 2,745 7.3 -12.3°
